Location: ????????
(54.6123°N, 39.2099°E)
Time: 11:53:25
(UTC+00:00)

COSMOS 2455 - Pass Details

Date: 19 May 2025
Orbit: 900 x 908 km, 67.1° (Epoch: 14 June)

Event Time Altitude Azimuth Distance (km) Brightness Sun altitude
Rises 23:33:30 0° 318° (NW) 3,546 6.2 -10.1°
Reaches altitude 10° 23:36:01 10° 319° (NW) 2,602 5.5 -9.9°
Maximum altitude 23:42:05 89° 49° (NE) 917 2.9 -9.4°
Drops below altitude 10° 23:48:07 10° 140° (SE) 2,591 5.1 -8.9°
Sets 23:50:37 0° 141° (SE) 3,529 5.8 -8.7°
